Printer-friendly version

IAU Minor Planet Center

Minor Planet Center

MPEC 2003-H47 : COMET C/2003 H1 (LINEAR)

The following Minor Planet Electronic Circular may be linked-to from your own Web pages, but must not otherwise be redistributed electronically.


Read MPEC 2003-H46 Read MPEC 2003-H48


M.P.E.C. 2003-H47                                Issued 2003 Apr. 30, 15:33 UT

     The Minor Planet Electronic Circulars contain information on unusual
         minor planets and routine data on comets.  They are published
   on behalf of Commission 20 of the International Astronomical Union by the
          Minor Planet Center, Smithsonian Astrophysical Observatory,
                          Cambridge, MA 02138, U.S.A.

             Prepared using the Tamkin Foundation Computer Network

                              MPC@CFA.HARVARD.EDU
          URL http://cfa-www.harvard.edu/iau/mpc.html  ISSN 1523-6714

                           COMET C/2003 H1 (LINEAR)

Observations:
    CK03H010  C2003 04 25.64398 18 14 25.54 +20 06 48.7          16.5 T      474
    CK03H010  C2003 04 25.67188 18 14 23.66 +20 07 03.5          16.1 T      474
    CK03H010  C2003 04 25.67882 18 14 23.19 +20 07 07.1          16.4 T      474
    CK03H010  C2003 04 25.99628 18 14 02.03 +20 09 55.0          16.6 N      213
    CK03H010  C2003 04 25.99927 18 14 01.87 +20 09 56.5          16.6 N      213
    CK03H010  C2003 04 26.00956 18 14 01.13 +20 10 01.8          16.6 N      213
    CK03H010  C2003 04 26.07378 18 13 56.78 +20 10 36.7          17.1 N      J95
    CK03H010  C2003 04 26.08122 18 13 56.26 +20 10 40.5          17.1 N      J95
    CK03H010  C2003 04 26.14649 18 13 51.84 +20 11 15.9          16.1 T      232
    CK03H010  C2003 04 26.15163 18 13 51.54 +20 11 19.3          16.2 T      232
    CK03H010  C2003 04 26.15417 18 13 51.41 +20 11 20.6          16.2 T      232
    CK03H010  C2003 04 26.23446 18 13 45.78 +20 12 06.8          16.5 N      860
    CK03H010  C2003 04 26.24306 18 13 45.27 +20 12 09.9          16.5 N      860
    CK03H010  C2003 04 26.25223 18 13 44.68 +20 12 17.1                      860
    CK03H010  C2003 04 26.37822 18 13 36.18 +20 13 20.2          16.5 T      704
    CK03H010  C2003 04 26.39057 18 13 35.30 +20 13 26.8          17.7 T      704
    CK03H010  C2003 04 26.40355 18 13 34.44 +20 13 33.9          16.8 T      704
    CK03H010  C2003 04 26.41636 18 13 33.61 +20 13 40.8          16.8 T      704
    CK03H010  C2003 04 26.42932 18 13 32.71 +20 13 48.0          16.9 T      704
    CK03H010  C2003 04 27.05043 18 12 50.02 +20 19 21.4                      170
    CK03H010  C2003 04 27.05244 18 12 49.87 +20 19 22.5                      170
    CK03H010  C2003 04 27.05439 18 12 49.74 +20 19 23.4                      170
    CK03H010  C2003 04 27.11200 18 12 45.67 +20 19 53.8                      J95
    CK03H010  C2003 04 27.11941 18 12 45.17 +20 19 58.0          16.3 N      J95
    CK03H010  C2003 04 27.33716 18 12 30.03 +20 21 55.0          16.4 T      H41
    CK03H010  C2003 04 27.34727 18 12 29.32 +20 21 59.7          16.5 T      H41
    CK03H010  C2003 04 27.37653 18 12 27.30 +20 22 16.0          16.5 T      704
    CK03H010  C2003 04 27.38576 18 12 26.56 +20 22 20.7          15.5 T      850
    CK03H010  C2003 04 27.38850 18 12 26.44 +20 22 22.6          16.5 T      704
    CK03H010  C2003 04 27.41319 18 12 24.70 +20 22 35.8          16.5 T      704
    CK03H010  C2003 04 27.42396 18 12 23.88 +20 22 41.5          14.6 T      850
    CK03H010  C2003 04 27.42516 18 12 23.86 +20 22 42.1          16.5 T      704
    CK03H010  C2003 04 27.62379 18 12 09.90 +20 24 28.4                      349
    CK03H010  C2003 04 27.62667 18 12 09.74 +20 24 29.1                      349
    CK03H010  C2003 04 27.63109 18 12 09.46 +20 24 31.7                      349
    CK03H010  C2003 04 27.63563 18 12 09.13 +20 24 34.2          16.0 T      349
    CK03H010  C2003 04 27.71012 18 12 03.86 +20 25 14.4                      340
    CK03H010  C2003 04 27.71285 18 12 03.63 +20 25 15.5                      340
    CK03H010  C2003 04 27.71554 18 12 03.41 +20 25 16.6                      340
    CK03H010  C2003 04 27.71847 18 12 03.22 +20 25 18.1                      340
    CK03H010  C2003 04 27.72082 18 12 03.05 +20 25 18.9                      340
    CK03H010  C2003 04 27.72305 18 12 02.87 +20 25 21.0          15.9 T      340
    CK03H010  C2003 04 27.96123 18 11 46.07 +20 27 27.0                      A46
    CK03H010  C2003 04 27.96235 18 11 45.95 +20 27 27.9                      A46
    CK03H010  C2003 04 27.96348 18 11 45.86 +20 27 28.3                      A46
    CK03H010  C2003 04 27.96461 18 11 45.84 +20 27 29.4                      A46
    CK03H010  C2003 04 27.96574 18 11 45.72 +20 27 30.2                      A46
    CK03H010  C2003 04 27.96687 18 11 45.66 +20 27 30.3                      A46
    CK03H010  C2003 04 27.96800 18 11 45.58 +20 27 31.3                      A46
    CK03H010  C2003 04 27.96913 18 11 45.47 +20 27 31.7                      A46
    CK03H010  C2003 04 27.97027 18 11 45.43 +20 27 32.3                      A46
    CK03H010  C2003 04 27.97139 18 11 45.33 +20 27 33.3                      A46
    CK03H010  C2003 04 27.97252 18 11 45.27 +20 27 33.1                      A46
    CK03H010  C2003 04 27.97365 18 11 45.18 +20 27 33.7                      A46
    CK03H010  C2003 04 27.97478 18 11 45.13 +20 27 34.7                      A46
    CK03H010  C2003 04 27.97589 18 11 45.04 +20 27 35.0                      A46
    CK03H010  C2003 04 27.97703 18 11 44.94 +20 27 35.4                      A46
    CK03H010  C2003 04 28.24988 18 11 25.39 +20 30 03.0          16.0 T      785
    CK03H010  C2003 04 28.29137 18 11 22.41 +20 30 23.7          16.5 T      H41
    CK03H010  C2003 04 28.29670 18 11 21.99 +20 30 27.2          16.5 T      H41
    CK03H010  C2003 04 28.30012 18 11 21.79 +20 30 29.4          15.9 T      785
    CK03H010  C2003 04 28.43515 18 11 12.08 +20 31 40.0          15.9 N      926
    CK03H010  C2003 04 28.44289 18 11 11.50 +20 31 45.2          15.9 N      926
    CK03H010  C2003 04 28.45053 18 11 10.91 +20 31 48.9          16.0 N      926
    CK03H010  C2003 04 29.31192 18 10 08.07 +20 39 26.2          16.6 T      785
    CK03H010  C2003 04 29.34596 18 10 05.51 +20 39 44.7          15.3 T      785

Observer details:
170 Observatorio de Begues.  Observer J. Manteca.  0.31-m f/6.3 Schmidt
    Cassegrain + CCD.
213 Observatorio Montcabre.  Observer R. Naves.  Measurer M. Campas.  0.30-m
    f/5.5 Schmidt-Cassegrain + CCD.
232 Masquefa Observatory.  Observer E. Reina.  0.25-m f/6.3 Schmidt-Cassegrain
    + CCD.
340 Toyonaka.  Observer Y. Ezaki.  0.30-m f/6 reflector + CCD.
349 Ageo.  Observer K. Kadota.  0.25-m f/5.0 reflector + CCD.
474 Mount John Observatory, Lake Tekapo.  Observer A. C. Gilmore.  0.6-m f/6.4
    reflector + CCD.
704 Lincoln Laboratory ETS, New Mexico.  Observers M. Blythe, F. Shelly,
    M. Bezpalko, R. Huber, L. Manguso, S. Adams, D. Torres, T. Brothers,
    S. Partridge.  Measurers J. Stuart, R. Sayer, J. Evans, P. Hopman.  1.0-m
    f/2.15 reflector + CCD.
785 Fitz-Randolph Observatory, Princeton.  Observer J. Maffei.  0.91-m f/13.6
    Cassegrain + CCD.
850 Cordell-Lorenz Observatory, Sewanee.  Observer D. T. Durig.  0.3-m f/5.75
    Schmidt-Cassegrain + CCD.
860 Valinhos.  Observers P. R. Holvorcem, M. Fidencio Neto.  0.36-m f/3.6
    Schmidt-Cassegrain + CCD.
926 Tenagra II Observatory.  Observers P. R. Holvorcem, M. Schwartz.  0.36-m
    f/11 Schmidt-Cassegrain + CCD.
A46 Lelekovice.  Observer K. Hornoch.  0.35-m f/4.7 reflector + CCD.
H41 Petit Jean Mountain.  Observer P. C. Sherrod.  0.41-m f/3.7
    Schmidt-Cassegrain + CCD.
J95 Great Shefford.  Observer P. Birtwhistle.  0.30-m f/6.3 Schmidt-Cassegrain
    + CCD.

Orbital elements:
    C/2003 H1 (LINEAR)
T 2004 Feb. 22.615 TT                                   MPC
q   2.24282              (2000.0)            P               Q
                   Peri.  196.013       -0.976364       +0.026368
                   Node    18.959       -0.034290       +0.961061
e   1.0            Incl.  138.678       -0.213394       -0.275076
From 111 observations 2003 Apr. 24-29.

Ephemeris:
    C/2003 H1 (LINEAR)
Date    TT    R. A. (2000) Decl.     Delta      r     Elong.  Phase   m1    m2
2003 04 21    18 19.23   +19 24.9    3.575    3.995   107.6    13.9  15.3
2003 05 01    18 08.01   +20 54.3    3.369    3.915   115.9    13.4  15.1
2003 05 11    17 53.41   +22 17.1    3.184    3.834   123.4    12.7  14.9
2003 05 21    17 35.42   +23 24.8    3.030    3.754   129.4    12.0  14.7
2003 05 31    17 14.43   +24 07.9    2.910    3.675   132.8    11.7  14.5
2003 06 10    16 51.36   +24 17.3    2.831    3.596   132.5    12.0  14.3
2003 06 20    16 27.59   +23 48.2    2.794    3.518   128.5    13.1  14.2
2003 06 30    16 04.64   +22 41.1    2.798    3.440   121.5    14.6  14.1
2003 07 10    15 43.85   +21 02.1    2.837    3.363   112.7    16.2  14.0
2003 07 20    15 26.03   +19 00.6    2.906    3.287   103.0    17.5  14.0
2003 07 30    15 11.49   +16 46.0    2.996    3.212    92.9    18.4  14.0

Brian G. Marsden             (C) Copyright 2003 MPC           M.P.E.C. 2003-H47

Read MPEC 2003-H46 Read MPEC 2003-H48


Our Web policy. Index to the CBAT/MPC/ICQ pages.


Valid HTML 4.01!